Theta_e
335 334 329 326 313 313 304 303 308 308 310 316 318 317 316 318 315 312 336 340 342 344 346 349 347 349 348 345 343 343 344 343 342 340 339 340 340 339 337 337 341 340 337 337 338 335 334 334 333
333 328 329 320 310 304 304 308 306 309 317 321 321 321 318 316 326 330 334 340 342 344 346 347 346 348 347 345 342 343 343 344 341 340 339 338 337 337 336 337 340 339 338 336 336 335 336 335 333
331 325 321 315 310 304 303 308 309 314 321 316 317 323 321 318 327 332 338 342 343 344 346 347 345 348 346 344 344 343 343 342 342 340 339 337 337 336 336 337 339 338 337 335 335 335 335 336 334
327 328 319 310 305 307 308 309 312 314 315 316 318 313 324 331 329 336 340 343 343 344 346 344 346 348 346 345 343 341 339 338 344 341 339 338 336 336 337 337 338 338 335 335 334 335 334 334 334
329 323 312 307 306 308 310 312 314 312 313 315 319 312 317 330 335 339 340 342 342 344 346 346 344 346 345 344 342 342 341 338 340 342 340 339 337 335 335 335 336 335 335 334 332 334 334 333 333
321 319 308 303 306 309 312 315 315 312 312 314 315 314 319 332 335 338 341 341 343 343 345 345 338 340 342 343 343 342 341 339 338 336 341 339 337 335 335 335 335 334 334 333 333 334 333 332 331
317 314 307 306 306 307 311 316 313 312 312 313 318 312 322 328 335 340 341 342 342 343 344 345 344 340 335 338 339 339 340 339 339 338 341 339 337 337 336 336 336 334 332 332 333 333 331 331 330
320 317 308 308 305 306 312 315 315 315 313 318 322 313 315 328 336 339 340 341 341 340 342 344 343 343 342 340 333 334 336 336 336 334 335 333 333 333 333 331 334 333 332 333 332 331 330 329 327
318 310 306 307 307 309 312 312 313 316 316 316 319 317 323 332 336 336 336 337 337 336 338 340 343 343 342 341 335 331 331 332 331 331 327 328 334 334 332 328 331 332 332 332 331 331 330 329 326
311 306 308 312 313 312 312 312 313 314 314 315 317 323 327 332 334 332 332 331 332 333 335 337 339 341 341 339 340 339 337 336 334 334 334 333 333 332 331 326 327 330 330 332 332 332 331 327 327
310 302 310 312 314 314 313 312 313 312 311 316 316 319 326 329 331 332 333 333 333 336 334 335 336 337 341 340 340 339 338 337 335 335 335 334 332 331 330 331 329 331 325 331 331 331 330 329 327
305 310 311 312 314 313 312 315 313 313 315 316 318 320 325 326 328 330 331 333 334 336 337 336 336 336 337 340 339 338 337 337 335 334 333 332 331 331 330 329 329 330 330 330 330 329 329 328 327
308 307 311 313 312 312 312 313 314 314 319 316 318 318 321 324 326 330 332 333 335 334 337 338 336 335 335 336 339 338 337 336 336 335 334 332 330 329 329 328 328 328 328 328 328 329 328 328 327
307 309 309 311 312 312 310 310 311 314 319 317 317 318 320 321 324 327 328 330 331 333 335 338 338 336 335 336 337 337 338 337 337 336 334 333 331 330 329 327 327 327 327 327 327 326 326 325 325
307 302 306 308 309 308 310 304 305 312 314 314 317 319 320 321 323 325 327 328 330 332 334 335 337 339 339 339 339 337 336 335 333 335 336 334 332 330 329 328 327 326 327 327 327 327 327 325 323
301 301 295 301 306 308 307 296 304 310 311 310 311 313 314 317 320 322 323 324 327 330 331 333 334 336 338 339 339 338 338 336 334 332 333 335 333 331 330 328 328 328 327 327 326 326 325 325 323
299 290 293 295 305 303 304 297 303 308 309 308 310 311 312 314 317 319 320 320 321 323 325 327 331 333 336 337 338 338 338 337 337 334 331 334 334 332 331 329 329 329 328 327 327 326 325 324 323
290 290 292 293 298 302 300 299 303 306 307 307 308 310 311 312 313 316 317 317 317 318 321 324 328 331 333 335 336 337 337 336 337 335 332 333 334 333 332 331 330 329 327 327 327 326 326 324 324
291 292 291 294 298 299 298 298 300 304 306 306 307 308 309 310 312 314 315 316 315 316 317 320 321 326 330 331 332 330 328 331 334 335 335 334 334 333 332 332 331 330 328 327 327 326 324 324 325
291 290 290 294 298 298 295 295 299 302 302 304 304 305 307 308 309 311 313 313 313 315 316 317 320 323 328 329 331 332 332 332 333 334 334 334 334 333 332 332 331 330 328 328 327 326 324 323 326
293 290 289 288 295 297 295 291 294 299 302 303 305 306 306 306 307 308 309 311 314 314 315 315 318 322 325 328 329 331 331 331 330 332 332 332 333 333 332 332 331 331 329 328 328 327 325 322 325
287 294 293 291 289 284 293 282 291 293 295 299 302 303 305 306 307 308 309 311 312 312 315 315 315 316 320 325 327 327 326 325 328 330 331 331 331 331 331 331 331 330 329 327 328 328 326 324 322
289 295 294 292 290 289 288 285 288 293 292 296 301 304 306 308 308 308 307 307 308 310 315 318 316 316 319 324 327 327 327 328 330 330 329 329 330 330 330 329 329 329 328 328 327 327 325 324 322
296 295 294 293 291 282 286 286 286 290 292 295 301 303 305 305 306 305 303 305 307 311 318 323 322 323 324 326 327 328 327 328 328 328 328 329 329 329 329 328 328 328 327 326 327 325 323 322 321
294 290 282 280 280 280 288 286 287 292 294 296 298 301 303 305 304 302 302 302 303 304 307 309 313 309 315 321 324 326 328 328 326 326 326 327 327 328 328 327 325 327 326 326 324 323 322 321 320
291 289 282 275 278 281 288 282 288 296 298 299 300 301 302 302 300 300 299 299 299 299 301 303 303 303 302 302 303 304 306 307 308 308 316 314 317 319 322 325 324 323 323 322 321 320 320 320 319
290 286 291 283 281 281 284 288 292 296 296 298 300 300 301 299 298 296 296 296 296 296 296 297 298 298 299 299 299 299 300 300 300 301 302 303 303 303 305 307 312 321 325 325 323 322 320 322 322
293 294 284 285 276 275 281 283 285 291 294 297 298 300 299 296 296 295 294 294 293 294 293 294 294 294 295 296 297 297 298 298 299 299 298 299 300 300 301 302 303 305 308 315 323 323 324 322 321
288 288 289 288 285 278 276 281 292 292 295 297 299 301 298 295 294 292 292 292 292 292 291 291 290 291 291 293 294 294 295 295 296 295 296 296 297 296 297 298 299 300 301 303 306 309 315 319 320
293 290 290 283 281 284 283 283 293 295 296 298 298 298 296 294 292 291 290 290 290 290 289 288 288 288 288 290 291 291 292 292 291 291 291 292 292 293 294 295 295 296 297 299 300 301 304 306 310
Wind_Speed
18 9 3 3 4 1 5 5 1 4 3 2 1 2 3 4 5 4 3 8 11 13 12 13 12 13 12 12 10 9 9 12 12 10 10 10 12 11 12 11 10 13 13 14 12 12 13 13 12
13 6 2 1 3 2 6 4 5 2 3 6 3 2 2 4 3 5 10 5 13 13 12 13 10 11 12 11 10 8 6 10 13 10 10 9 9 10 11 11 10 13 14 13 11 12 11 13 12
8 4 3 1 1 3 5 3 6 5 7 1 2 1 2 3 3 7 3 13 13 12 11 11 10 12 12 11 10 8 7 9 10 13 10 9 9 10 10 9 10 10 12 12 11 12 10 11 10
5 1 3 3 4 3 4 6 8 8 3 4 2 3 3 3 2 6 10 14 14 12 12 12 10 12 11 11 11 8 7 3 9 11 12 10 9 7 8 7 7 9 10 11 11 9 9 8 8
2 1 1 3 4 3 2 4 6 6 5 4 3 4 3 3 3 9 13 13 12 12 11 13 10 10 10 10 10 9 7 5 6 9 11 12 10 9 7 7 8 9 9 9 9 8 7 7 7
1 2 4 6 5 3 3 5 5 3 3 4 2 3 4 4 7 8 13 13 12 10 10 11 8 8 9 8 8 6 6 5 3 7 13 12 10 8 8 8 8 9 9 8 8 7 6 6 6
3 3 2 3 6 5 4 6 4 3 3 4 1 2 4 7 5 9 11 11 11 10 10 10 11 10 7 8 7 7 6 5 2 3 12 9 10 8 6 4 5 8 8 8 8 7 5 5 5
2 2 4 3 7 4 5 6 2 3 3 2 1 3 4 6 9 9 10 10 10 9 10 10 10 10 9 9 8 8 7 6 5 2 6 8 7 8 6 3 1 4 5 6 5 4 3 2 2
2 4 5 4 6 4 5 6 2 1 3 3 3 1 5 8 10 10 8 8 8 8 10 10 10 10 9 8 8 7 6 7 7 5 6 8 6 8 9 5 4 3 3 5 5 4 3 2 1
4 4 6 1 3 2 4 4 5 5 6 5 4 5 5 10 11 12 12 10 10 11 11 9 11 11 10 7 8 9 8 8 9 8 9 7 7 6 6 4 6 4 6 5 6 5 3 5 5
3 6 5 4 4 2 2 4 2 5 6 6 6 7 8 9 11 11 11 11 12 11 9 10 10 10 11 9 7 6 5 6 6 10 9 8 6 6 6 5 5 6 7 6 7 7 6 6 5
7 6 5 4 4 4 3 0 3 7 3 2 4 2 7 10 11 12 11 11 10 12 13 12 11 9 10 8 8 8 7 7 7 9 11 8 6 7 7 6 6 6 5 6 6 5 6 7 7
7 5 5 2 2 2 1 7 6 8 7 2 3 3 6 7 9 8 9 9 10 11 12 13 12 12 9 11 9 9 9 8 9 8 10 9 8 8 7 7 6 6 6 7 6 6 6 7 7
2 8 4 3 5 3 6 11 5 9 11 9 8 10 9 8 8 7 10 11 12 12 13 13 14 14 12 12 13 9 9 9 9 9 10 12 9 8 8 7 7 7 7 7 6 7 7 7 7
2 5 3 8 5 5 4 17 18 18 12 11 12 13 11 11 8 11 9 11 11 11 12 13 14 15 16 15 13 10 9 10 9 9 12 12 12 11 10 8 8 8 7 8 7 7 7 7 7
6 4 8 5 9 6 11 19 1 15 19 20 20 18 16 13 11 11 11 12 11 11 11 12 12 15 16 15 12 11 11 10 10 9 9 14 14 13 11 9 8 8 7 7 8 8 7 7 8
7 6 13 8 10 8 16 15 5 7 12 16 17 17 15 14 13 13 12 10 10 11 12 12 13 15 16 15 12 12 12 11 10 10 9 13 14 14 12 10 9 10 8 8 8 8 8 8 8
11 9 8 11 6 13 15 25 10 4 8 12 14 14 13 12 14 13 11 10 12 13 13 12 10 13 14 10 10 10 10 11 10 10 10 13 11 14 13 11 11 10 9 9 9 10 9 9 9
9 13 11 5 4 8 18 24 21 17 17 16 15 14 15 17 16 18 15 13 13 13 13 14 14 13 10 9 9 9 11 10 10 11 14 15 13 13 12 10 11 11 11 11 11 10 11 10 8
8 11 11 3 4 7 13 23 22 20 21 23 22 21 21 20 21 19 15 13 12 13 12 12 13 12 11 10 9 9 8 10 10 11 12 14 14 14 13 13 11 12 10 12 12 11 10 9 8
19 18 10 5 2 9 11 23 24 19 24 23 21 21 20 22 22 20 15 13 9 10 10 10 12 13 13 14 9 8 7 7 8 9 10 11 13 13 14 14 12 12 11 10 12 11 14 10 8
19 14 15 11 5 8 2 14 14 5 8 10 17 17 19 18 16 14 12 11 7 8 8 10 12 12 12 13 12 15 10 11 8 8 8 8 11 13 14 14 13 13 10 12 11 10 12 9 11
10 9 14 15 14 12 17 11 8 3 9 10 12 13 12 10 8 7 3 2 4 5 6 7 7 8 10 11 13 10 12 8 6 5 7 9 9 12 12 12 12 13 10 12 13 12 10 9 9
9 10 8 7 8 11 18 16 17 17 12 13 12 11 9 6 4 4 4 4 5 6 6 4 2 2 4 7 10 11 10 9 6 7 6 6 6 6 9 10 10 11 10 11 10 10 10 9 9
16 15 6 7 9 13 4 13 21 4 6 9 12 10 7 6 8 6 7 7 9 10 9 9 10 12 11 8 4 3 6 6 6 6 4 4 4 5 6 8 9 9 11 11 8 9 10 11 10
23 20 8 11 10 10 10 15 9 3 18 16 13 12 7 8 8 8 10 9 10 11 11 12 12 13 13 13 13 11 12 7 7 9 6 6 5 5 7 5 5 7 8 8 8 8 8 9 10
19 23 16 9 2 4 10 13 13 11 10 10 12 10 8 10 11 11 11 10 11 12 13 13 13 13 14 13 11 12 12 11 10 10 9 6 7 7 8 8 8 7 9 11 10 8 9 11 11
13 16 12 11 9 13 13 16 15 6 14 17 13 11 11 13 14 12 10 11 10 11 11 13 13 13 13 13 12 11 12 12 11 10 11 10 9 10 10 10 10 9 9 10 9 9 8 10 8
10 14 11 9 12 9 9 13 17 19 14 12 15 14 15 16 14 12 10 9 10 10 10 11 12 12 12 12 11 11 11 11 11 10 10 10 10 11 11 11 11 10 10 11 10 10 9 10 11
24 23 25 10 15 16 15 15 6 2 8 12 7 12 15 15 14 12 11 9 8 9 9 10 10 11 10 10 10 11 11 11 12 11 12 12 11 11 11 11 11 11 11 11 11 12 11 12 13
Wind_Direction
325 331 294 242 240 220 101 118 107 168 185 56 79 282 3 11 355 31 116 139 152 151 153 161 153 145 139 136 142 140 145 139 124 121 122 135 127 124 121 126 125 119 117 108 102 111 109 102 97
325 318 256 333 266 171 89 118 167 142 90 110 126 152 201 75 63 102 137 159 162 153 158 157 151 147 144 139 140 144 130 134 123 128 126 124 136 129 133 140 127 127 122 117 110 107 110 110 104
328 327 287 38 307 97 99 126 119 130 148 159 178 317 25 65 106 153 97 154 157 155 160 146 155 148 150 145 141 146 146 136 150 137 135 139 133 140 142 140 129 136 131 127 117 113 103 97 112
336 194 135 239 149 81 66 121 128 141 200 246 284 130 144 16 106 153 144 154 159 158 164 139 156 148 155 148 150 154 162 154 159 140 138 137 146 147 146 156 135 140 141 141 135 118 105 99 109
342 256 159 161 132 107 136 131 150 150 150 171 215 104 89 113 121 141 154 162 161 165 167 163 152 148 152 152 156 158 161 158 156 153 152 146 151 157 170 163 151 150 150 147 148 128 114 101 98
305 297 212 180 150 130 140 154 164 165 142 130 191 142 88 119 157 150 159 164 161 169 170 167 155 150 154 156 161 169 169 157 161 176 157 151 154 164 176 175 162 167 164 160 158 147 134 117 101
6 305 105 159 146 162 137 165 189 153 165 145 107 134 96 176 162 157 165 163 163 168 179 180 177 171 160 163 166 177 181 174 169 127 154 168 153 166 184 205 191 171 178 174 163 165 162 151 129
335 274 165 176 179 159 139 182 138 208 133 86 238 113 122 142 148 158 164 169 168 176 186 187 190 187 184 180 175 179 181 197 168 203 161 158 157 159 166 169 254 203 194 180 177 182 182 169 121
291 229 202 175 187 142 154 198 132 120 186 193 167 15 81 132 147 155 167 181 181 189 194 195 194 197 198 197 180 186 192 187 171 159 137 161 199 184 171 183 158 219 174 193 194 204 206 178 175
235 231 207 139 189 195 175 223 170 196 185 205 182 149 132 158 173 169 185 191 203 204 203 203 202 204 201 200 197 204 195 204 201 194 184 205 200 201 210 193 204 224 209 195 200 219 215 233 245
169 230 186 202 208 233 194 216 210 215 214 220 211 167 160 172 189 193 207 204 206 205 209 212 210 210 210 207 203 203 205 205 208 208 201 205 206 196 209 213 206 218 203 221 206 202 225 237 256
211 231 201 172 187 173 208 314 230 233 242 10 230 161 171 186 197 205 213 214 210 206 206 211 213 213 218 218 212 213 211 208 209 209 207 206 208 213 219 221 220 220 220 229 227 230 238 243 246
224 218 207 153 164 239 191 232 252 248 248 218 182 216 212 212 218 217 222 224 223 220 218 206 209 210 207 220 222 221 218 213 221 215 212 211 214 216 218 222 223 225 220 225 227 232 236 240 247
214 216 226 262 221 243 245 251 210 235 246 235 229 236 229 236 235 225 222 225 221 228 228 219 210 212 205 212 217 218 224 227 224 219 217 213 219 219 218 223 227 230 227 227 233 236 238 243 244
175 194 257 233 218 226 220 256 234 239 231 242 236 242 244 238 234 243 244 241 235 230 233 227 223 217 217 216 214 216 218 222 221 226 222 219 217 221 221 223 224 227 225 235 239 243 245 250 247
204 226 224 194 202 220 202 250 297 228 233 238 242 246 251 252 240 247 255 261 258 246 235 233 221 221 222 223 219 218 217 215 220 222 225 223 222 221 221 225 227 224 221 223 229 236 243 252 260
197 221 224 257 218 208 213 266 246 218 227 243 243 246 251 257 255 254 245 240 256 259 251 238 229 227 227 227 225 226 226 223 221 218 217 226 224 223 225 227 229 223 224 226 236 242 243 255 257
195 212 213 221 190 222 233 253 241 234 237 240 253 249 243 245 250 251 246 251 264 261 256 243 229 229 231 230 227 229 228 229 228 218 221 219 223 221 224 232 232 229 232 234 232 237 238 242 257
225 215 218 207 197 226 240 257 257 248 245 248 247 248 254 256 256 258 264 267 262 261 251 248 245 230 221 216 217 227 224 226 228 227 219 223 225 223 226 234 235 231 237 237 235 235 239 245 239
209 218 225 232 224 228 259 262 264 257 251 247 248 249 255 263 264 259 256 255 265 265 257 248 243 235 218 220 216 221 211 223 226 231 229 226 223 221 222 227 233 230 237 240 238 235 241 247 233
225 229 212 239 152 235 283 270 254 248 249 246 250 255 255 252 258 266 265 261 262 263 263 253 244 236 228 224 220 217 227 233 224 225 229 227 228 227 227 230 233 233 232 244 240 233 234 247 233
226 221 229 219 234 254 194 284 263 187 222 227 234 240 241 245 251 266 267 269 276 275 276 262 258 252 245 231 220 216 215 224 222 225 221 219 217 226 228 233 238 241 239 239 247 243 240 239 254
239 179 201 212 231 269 238 266 253 185 238 220 223 223 227 238 241 257 263 314 336 321 299 273 258 251 238 226 221 218 229 242 242 222 218 213 212 222 225 225 229 235 237 242 246 246 232 235 243
142 134 148 197 222 244 232 227 258 240 232 218 205 221 216 216 221 143 94 57 38 22 23 24 60 14 234 218 217 223 231 236 232 230 226 222 221 226 232 232 233 237 234 232 236 241 242 233 234
184 167 169 203 210 240 200 216 249 298 326 242 226 228 214 179 156 134 98 71 52 44 45 52 61 56 45 55 38 280 246 246 250 266 255 269 239 237 247 232 236 239 241 246 239 230 227 226 230
200 191 191 213 221 250 160 233 239 218 219 231 221 238 178 167 138 118 96 85 77 63 58 60 59 63 57 58 57 51 51 54 49 40 43 39 26 16 358 314 256 251 249 239 235 234 234 221 234
198 213 220 272 83 259 220 249 283 234 241 234 230 226 225 151 132 122 108 96 85 76 66 64 63 60 56 57 56 52 48 50 50 45 42 38 31 16 8 5 352 315 270 264 254 245 235 241 233
195 192 195 217 222 230 247 251 253 195 225 228 225 213 165 144 141 127 112 99 86 77 72 65 61 57 50 51 49 51 48 47 45 43 38 27 20 12 6 3 357 346 338 325 299 269 251 250 242
179 193 218 223 230 228 254 242 241 241 232 217 225 213 167 155 143 131 117 102 93 82 71 63 56 51 47 42 42 42 38 34 32 30 21 13 3 1 359 353 347 343 339 336 324 311 301 280 267
205 203 195 192 204 226 247 251 130 164 246 251 231 163 157 150 146 138 125 113 96 84 72 61 55 50 39 39 41 39 35 27 20 12 7 1 354 352 348 345 340 337 333 328 321 313 308 297 287